Location: Ketchums Corners
(43.0101°N, 73.6946°W)
Time: 03:49:51
(UTC+00:00)

Daily predictions for brighter satellites

Satellite Brightness Start Highest point End
(mag) Time Altitude Azimuth Time Altitude Azimuth Time Altitude Azimuth
Cosmos 1536 Rocket 4.1 00:01:05 10° N 00:05:17 39° ENE 00:08:22 17° SE
Cosmos 372 Rocket 4.0 00:02:15 10° SSW 00:07:30 87° ESE 00:12:45 10° NNE
FREGAT/IRIS 4.3 00:08:33 16° NE 00:08:33 16° NE 00:09:34 10° NNE
Cosmos 2263 Rocket 3.7 00:04:08 10° SW 00:09:17 38° WNW 00:14:30 10° N
Cosmos 1464 Rocket 3.9 00:03:47 10° S 00:09:53 76° E 00:16:03 10° N
Cosmos 1025 Rocket 3.0 00:06:09 10° N 00:10:30 60° E 00:14:50 10° SSE
Cosmos 1844 4.1 00:05:18 10° S 00:10:35 40° ESE 00:15:49 10° NE
USA 186 2.1 00:11:48 32° ESE 00:12:47 43° ENE 00:15:54 10° N
BREEZE-M DEB (TANK) 3.4 00:10:06 10° SW 00:13:09 66° SE 00:22:28 10° NE
Cosmos 1844 Rocket 2.7 00:09:56 10° S 00:15:20 54° ESE 00:20:46 10° NNE
Cosmos 1867 3.7 00:10:36 10° NW 00:16:04 74° WSW 00:21:02 12° SSE
Cosmos 1626 4.4 00:17:24 10° NE 00:17:55 12° NE 00:17:55 12° NE
ISS -2.7 00:17:21 10° W 00:20:36 44° NNW 00:22:47 18° NE
Cosmos 2151 Rocket 3.5 00:18:12 10° S 00:22:38 72° E 00:27:07 10° NNE
USA 234 3.7 00:17:12 10° ENE 00:23:07 37° SE 00:29:06 10° SSW
Lacrosse 5 rocket 4.1 00:24:21 10° NW 00:26:38 14° N 00:28:57 10° NNE
Cosmos 2150 Rocket 4.0 00:21:48 10° SSW 00:27:10 81° ESE 00:32:38 10° NNE
MetOp-A 4.3 00:26:18 24° SE 00:29:22 54° ENE 00:34:35 10° N
Cosmos 1125 Rocket 3.5 00:26:18 10° S 00:31:30 59° ESE 00:36:43 10° NNE
MOS 1 4.3 00:27:58 20° SSE 00:31:56 64° ENE 00:37:35 10° N
CZ-2C R/B 2.6 00:29:51 10° WSW 00:32:33 20° S 00:32:43 20° S
DMSP B5D2-2 4.0 00:31:06 10° NNE 00:36:21 60° E 00:41:33 10° S
NOSS 3-2 (C) 4.2 00:30:44 10° NNW 00:38:09 59° NE 00:42:21 31° ESE
Exosat Rocket 3.5 00:33:48 10° S 00:39:29 62° ESE 00:44:25 10° NNE
Cosmos 1833 Rocket 4.3 00:35:43 10° N 00:39:33 18° NE 00:40:10 18° NE
NOSS 3-4 (A) 3.7 00:35:50 10° S 00:41:10 38° ESE 00:42:16 35° E
NOSS 3-4 (C) 3.7 00:35:58 10° S 00:41:16 37° ESE 00:41:56 36° E
Cosmos 1674 2.5 00:50:05 10° N 00:53:58 90° E 00:54:01 87° SSE
Meteor 1-15 Rocket 4.2 00:48:46 10° S 00:54:23 88° W 01:00:08 10° N
Cosmos 1805 3.5 00:57:53 58° NNE 00:57:53 58° NNE 01:01:06 10° N
Abrixas rocket 4.0 00:55:37 10° NW 00:57:14 24° NNW 00:57:14 24° NNW
Resurs 01 Rocket 2.5 00:59:15 35° NE 00:59:15 35° NE 01:02:26 10° N
H-2A R/B 3.8 00:54:43 10° SSW 00:58:59 29° W 01:03:22 10° NW
Cosmos 1048 Rocket 4.3 00:55:23 10° NNW 01:00:40 67° WSW 01:03:09 32° S
Nadezhda 4 Rocket 4.3 00:56:01 10° NNW 01:02:05 65° W 01:07:55 11° S
ATLAS 2AS CENTAUR R/B 3.0 00:56:04 10° SSW 01:03:43 56° ESE 01:11:24 10° NE
BREEZE-M TANK 2.8 00:56:13 10° WSW 01:04:37 80° NNW 01:05:15 62° ENE
CENTAUR R/B 3.1 01:02:46 10° NW 01:10:58 81° NE 01:14:15 44° SE
ARIANE 5 R/B 4.4 01:17:01 22° NNE 01:17:01 22° NNE 01:18:52 10° N
Cosmos 1269 Rocket 4.1 01:10:28 10° NNW 01:15:25 60° NE 01:15:25 60° NE
Okean 1 Rocket 3.4 01:16:18 49° SW 01:17:17 64° W 01:21:46 10° N
ATLAS 3B R/B 3.4 01:12:49 10° NNW 01:19:07 37° NE 01:20:03 36° ENE
Ariane Rocket 4.1 01:16:43 20° SSW 01:19:50 41° W 01:24:38 10° NNW
OBJECT-B 3.2 01:23:19 22° NNW 01:23:19 22° NNW 01:24:41 10° NNW
Cosmos 2082 Rocket 3.8 01:20:06 10° N 01:23:32 22° NE 01:23:32 22° NE
Cosmos 494 Rocket 4.3 01:20:57 10° NNW 01:26:09 61° WSW 01:26:49 56° SW
USA 238 DEB 4.2 01:19:28 10° NW 01:26:36 61° WSW 01:29:18 40° S
USA 238 4.2 01:19:34 10° NW 01:26:43 61° WSW 01:29:22 40° S
Meteor 2-5 Rocket 3.8 01:21:16 10° NNW 01:26:55 76° W 01:27:52 61° SSW
Resurs 1-3 4.3 01:32:05 53° WNW 01:32:05 53° WNW 01:35:49 10° NNW
Meteor 1-22 Rocket 4.3 01:32:16 67° SSW 01:33:05 85° W 01:39:10 10° N
CZ-2C R/B 4.0 01:28:15 10° N 01:33:23 40° WNW 01:38:33 10° SW
COSMOS 2406 3.6 01:33:36 10° NNW 01:38:13 52° NNE 01:38:13 52° NNE
Cosmos 1634 Rocket 4.1 01:37:16 37° SSW 01:39:47 70° W 01:45:59 10° N
Meteor 1-24 Rocket 3.9 01:39:12 10° NNW 01:44:32 70° W 01:44:32 70° W
SPOT 3 Rocket 4.0 01:44:55 55° W 01:44:55 55° W 01:49:53 10° NNW
ISS -0.2 01:55:29 10° NW 01:55:46 11° NW 01:55:46 11° NW
Lacrosse 4 Rocket 4.2 01:59:32 10° N 01:59:57 12° N 01:59:57 12° N
USA 234 3.4 02:04:41 50° NNE 02:06:22 68° NW 02:12:51 10° WSW
Lacrosse 5 rocket 4.1 02:04:29 10° NNW 02:06:10 15° N 02:06:10 15° N
Cosmos 1833 Rocket 3.9 02:18:31 10° NNW 02:21:52 37° NNW 02:21:52 37° NNW
Resurs 01 Rocket 4.4 02:36:49 16° WNW 02:36:49 16° WNW 02:38:11 10° NW
ATLAS 2AS CENTAUR R/B 4.0 02:47:29 10° WSW 02:54:59 43° NW 03:02:26 10° NNE
Cosmos 2082 Rocket 4.3 03:03:27 10° NNW 03:05:22 22° NW 03:05:22 22° NW
ATLAS 3B R/B 4.0 03:03:21 10° NW 03:07:18 35° WNW 03:07:18 35° WNW
SL-16 R/B 4.4 06:30:27 23° N 06:30:27 23° N 06:32:32 10° NNW
Resurs 1-4 Rocket 4.5 06:27:46 10° NNE 06:29:09 19° NNE 06:29:09 19° NNE
Cosmos 1697 Rocket 4.1 07:06:50 34° NE 07:06:50 34° NE 07:10:03 10° NNE
Cosmos 1980 Rocket 3.6 07:10:59 32° E 07:10:59 32° E 07:14:55 10° NE
USA 234 4.3 07:06:27 10° E 07:12:26 40° NNE 07:17:05 16° NW
Cosmos 2263 Rocket 4.5 07:12:49 10° N 07:17:03 21° NE 07:21:16 10° E
ADEOS II 3.4 07:25:13 10° NNE 07:28:10 35° N 07:28:10 35° N
ARIANE 5 R/B 3.6 07:28:36 10° NNE 07:32:22 42° ENE 07:32:22 42° ENE
CZ-3B R/B 4.1 07:37:59 24° NNE 07:37:59 24° NNE 07:41:05 10° NE
IDEFIX/ARIANE 42P 3.4 07:34:20 10° NNE 07:39:15 45° E 07:39:15 45° E
ASTEX 1 4.5 07:35:25 10° NNE 07:39:48 43° ENE 07:39:48 43° ENE
Nadezhda 3 Rocket 4.1 07:41:12 67° N 07:41:12 67° N 07:46:29 10° N
SJ 16-02 3.6 07:47:01 10° N 07:50:38 24° ENE 07:54:14 10° ESE
Cosmos 44 4.2 07:54:54 42° NE 07:54:54 42° NE 07:58:07 10° NE
Cosmos 1238 Rocket 4.3 07:50:15 10° N 07:56:49 63° E 08:00:20 26° SSE
H-2A R/B 4.0 07:56:05 10° SE 07:59:53 30° ENE 08:03:45 10° N
Lacrosse 5 2.7 08:06:13 41° NNW 08:06:13 41° NNW 08:10:25 10° NE
CZ-2D R/B 4.2 08:02:39 10° NNW 08:04:03 15° NNW 08:04:03 15° NNW
Cosmos 2278 3.7 08:08:13 72° NW 08:08:13 72° NW 08:13:41 10° NNE
Resurs 1-4 Rocket 4.3 08:09:07 10° NNW 08:10:13 13° NNW 08:10:13 13° NNW
Cosmos 2369 4.3 08:17:22 42° NW 08:17:22 42° NW 08:22:21 10° NNE
X-37B 3.0 08:18:53 23° ENE 08:18:53 23° ENE 08:20:17 10° E
NOSS 3-3 (A) 3.8 08:19:03 57° SSW 08:20:15 77° ESE 08:26:40 10° NE
NOSS 3-3 (C) 3.8 08:19:13 58° S 08:20:22 76° ESE 08:26:44 10° NE
USA 267 3.4 08:14:25 10° NE 08:20:51 61° NNW 08:22:28 48° W
Cosmos 1339 Rocket 4.4 08:29:39 31° S 08:32:55 88° W 08:39:11 10° N
Spot 4 Rocket 3.9 08:29:24 10° N 08:34:31 65° WNW 08:35:06 60° WSW
ATLAS 2AS CENTAUR R/B 4.3 08:29:16 10° NNW 08:36:07 35° NE 08:42:28 10° ESE
Cosmos 972 4.4 08:36:49 56° WNW 08:36:57 56° WNW 08:41:46 10° N
SL-8 R/B 3.6 08:39:54 54° WNW 08:41:00 88° NNE 08:45:47 10° ESE
ADEOS Rocket 4.0 08:36:10 10° SE 08:42:43 52° ENE 08:48:38 10° N
Cosmos 921 Rocket 2.8 08:43:18 70° WNW 08:43:22 70° WNW 08:47:32 10° NNE
Cosmos 2360 Rocket 4.2 08:39:12 10° SSE 08:43:49 26° ESE 08:48:27 10° NE
Cosmos 1898 Rocket 4.2 08:38:52 10° NNW 08:44:01 55° ENE 08:49:12 10° SE
MSX 3.7 08:38:42 10° N 08:44:28 72° WNW 08:47:05 34° SSW
CZ-4C R/B 3.1 08:47:18 67° NNW 08:47:18 67° NNW 08:50:28 10° NNW
Cosmos 1812 2.5 08:46:42 76° SW 08:46:58 83° W 08:50:50 10° N
Cosmos 1500 3.1 08:44:01 10° NNW 08:47:32 67° NW 08:47:32 67° NW
IRIDIUM 104 4.4 08:42:41 10° N 08:47:56 81° E 08:53:09 10° S
Cosmos 1697 Rocket 4.0 08:48:35 23° NW 08:48:54 23° NW 08:53:18 10° N
USA 305 4.4 08:51:58 23° NW 08:52:55 25° NNW 08:56:29 10° NE
Cosmos 1666 3.4 08:49:40 10° N 08:53:27 55° E 08:57:09 10° SSE
Cosmos 1707 Rocket 4.1 08:49:26 10° S 08:53:39 57° E 08:57:55 10° NNE
Cosmos 1980 Rocket 2.9 08:52:47 33° WNW 08:53:45 36° WNW 08:58:58 10° N
USA 234 3.1 08:48:34 10° SE 08:55:06 80° SW 09:01:41 10° NW
IRIDIUM 114 4.2 08:51:50 10° N 08:57:05 84° W 09:02:18 10° S
USA 306 4.4 08:56:00 22° NW 08:57:10 24° NNW 09:00:41 10° NE
BREEZE-M DEB (TANK) 3.3 08:55:57 27° SW 09:00:09 68° SSE 09:03:30 10° ENE
Cosmos 2322 Rocket 2.5 08:55:32 14° S 09:00:28 67° ESE 09:06:08 10° NNE
Cosmos 2263 Rocket 2.1 08:55:52 10° NNW 09:01:30 69° WSW 09:07:07 10° SSE
BREEZE-M DEB (TANK) 3.0 09:01:04 42° WNW 09:01:47 52° NNW 09:07:58 10° ENE
USA 32 4.2 08:57:35 10° N 09:02:51 74° E 09:08:05 10° S
IRIDIUM 103 4.2 09:01:01 10° N 09:06:13 70° W 09:11:23 10° S
ADEOS II 4.1 09:07:18 10° NW 09:09:07 12° NW 09:09:07 12° NW
Cosmos 1937 Rocket 3.9 09:04:28 10° NNW 09:09:36 66° ENE 09:14:41 10° SSE
SL-16 R/B 2.1 09:05:31 19° SSW 09:09:45 85° WNW 09:15:28 10° NNE
Cosmos 2228 Rocket 3.7 09:09:42 32° W 09:10:04 33° WNW 09:14:05 10° N
SL-4 R/B 2.5 09:08:18 30° SW 09:10:31 69° SE 09:15:17 10° ENE
FALCON 9 DEB 3.2 09:10:01 42° SSW 09:11:02 71° SE 09:14:27 10° ENE
Cosmos 1733 Rocket 4.0 09:07:57 10° N 09:12:12 50° ENE 09:16:24 10° SSE
ARIANE 5 R/B 3.8 09:08:32 10° NNW 09:12:16 21° WNW 09:12:41 21° WNW
ADEOS 4.2 09:09:16 10° NNE 09:14:26 59° ESE 09:19:34 10° S
USA 276 4.1 09:13:50 16° NW 09:15:26 23° N 09:18:07 10° ENE
Meteor 1-4 Rocket 2.7 09:16:32 38° WSW 09:17:15 44° WNW 09:20:39 10° N
Cosmos 841 Rocket 4.1 09:12:19 10° S 09:17:26 59° ESE 09:22:36 10° NNE
Cosmos 2173 Rocket 4.3 09:11:29 10° N 09:17:49 71° E 09:24:11 10° SSE
Gbstr 26 Del rocket 4.4 09:09:44 10° WNW 09:17:51 85° SW 09:24:58 10° SE
Cosmos 44 Rocket 4.1 09:13:23 10° S 09:17:54 48° ESE 09:22:32 10° NE
IDEFIX/ARIANE 42P 3.7 09:14:29 10° N 09:18:43 25° WNW 09:20:03 23° W
CZ-2C R/B 2.5 09:13:48 10° N 09:18:55 70° WNW 09:24:04 10° SSW
Cosmos 1869 Rocket 3.9 09:15:12 10° NNW 09:19:17 40° W 09:23:19 10° SSW
Cosmos 2227 4.4 09:15:14 10° NW 09:20:34 44° WSW 09:25:51 10° S
CZ-2C R/B 3.9 09:18:31 10° NNW 09:21:36 24° WNW 09:21:45 24° WNW
Meteor 1-10 Rocket 4.5 09:17:09 15° SSW 09:21:53 51° WNW 09:27:37 10° N
ERBS 3.3 09:22:46 27° WNW 09:23:41 32° NW 09:26:45 10° NNE
Cosmos 1763 Rocket 3.6 09:21:34 15° SW 09:25:58 61° WNW 09:31:14 10° NNE
Cosmos 1862 Rocket 4.0 09:23:29 10° S 09:27:50 66° E 09:32:10 10° NNE
SJ-6F 4.4 09:24:23 10° NNE 09:28:30 89° E 09:32:35 10° SSW
SJ 16-02 2.0 09:25:19 10° NW 09:29:14 32° W 09:33:09 10° SSW
Intercosmos 25 4.5 09:26:36 10° SSE 09:30:42 44° E 09:33:54 10° NNE
PSLV R/B 3.9 09:27:22 10° N 09:31:22 43° WNW 09:34:42 14° SW
Cosmos 1743 4.0 09:29:01 10° N 09:32:40 43° ENE 09:36:18 10° SSE
Cosmos 967 Rocket 4.5 09:27:03 10° SW 09:33:30 81° WNW 09:39:57 10° NNE
CZ-4B R/B 1.1 09:31:59 10° S 09:35:07 78° WSW 09:38:21 10° NNW
H-2A R/B 3.0 09:32:05 10° SSW 09:35:48 27° W 09:39:36 10° NW
DEBRIS 3.1 09:34:58 22° W 09:36:29 46° SSW 09:42:22 10° SE
Cosmos 1570 Rocket 4.0 09:34:23 10° SSW 09:39:43 90° NW 09:45:06 10° NNE
PKM 3.9 09:37:14 10° NW 09:40:54 82° NE 09:45:00 10° SE
Cosmos 1689 Rocket 3.2 09:41:53 10° SSE 09:44:44 48° ENE 09:47:38 10° N
Cosmos 2016 Rocket 4.1 09:42:26 10° N 09:48:35 81° E 09:54:40 10° S
ERS-2 3.0 09:45:36 10° SSW 09:48:45 27° W 09:51:55 10° NW
Lacrosse 5 3.8 09:46:09 10° NW 09:49:41 18° NNW 09:53:13 10° NNE
Cosmos 2333 Rocket 3.9 09:45:07 10° S 09:50:20 37° ESE 09:55:35 10° NE
Cosmos 1000 Rocket 4.5 09:45:08 10° SSW 09:51:16 67° W 09:57:25 10° N
Okean 1 3.9 09:48:12 10° S 09:52:11 63° E 09:56:13 10° NNE
Cosmos 540 Rocket 3.5 09:47:31 10° SSW 09:52:39 68° WNW 09:57:50 10° NNE
CZ-4B R/B 3.6 09:49:12 10° NNE 09:52:46 50° E 09:56:15 10° S
Meteor 2-20 4.4 09:47:02 10° S 09:53:11 82° W 09:59:20 10° N
X-37B 0.7 09:51:10 14° W 09:53:48 61° SSW 09:56:57 10° ESE
CZ-4B R/B 4.1 09:50:13 10° N 09:54:35 84° WNW 09:59:02 10° SSW
ALOS 2.2 09:54:08 10° N 09:58:47 69° WNW 10:03:25 10° SSW
Cosmos 1484 Rocket 2.9 09:55:02 10° N 09:58:57 59° WNW 10:02:54 10° SSW
COSMO-SKYMED 1 2.9 09:58:16 10° SSE 10:02:35 74° ENE 10:06:56 10° N
USA 267 4.4 09:57:36 10° NE 10:03:06 30° NNW 10:08:36 10° WNW
NOSS 3-4 (A) 3.9 09:56:35 10° NW 10:03:41 77° WSW 10:11:32 10° SSE
NOSS 3-4 (C) 3.9 09:56:41 10° NW 10:03:48 78° WSW 10:11:39 10° SSE
Cosmos 1536 3.8 10:02:58 10° NNW 10:06:26 27° W 10:09:53 10° SSW
Cosmos 1725 Rocket 4.0 10:02:13 10° N 10:08:25 86° W 10:14:36 10° S
Meteor 1-31 Rocket 2.9 10:06:47 10° N 10:10:30 52° WNW 10:14:15 10° SSW
Cosmos 1437 Rocket 2.7 10:10:23 10° SSW 10:14:06 59° WNW 10:17:54 10° N
Cosmos 2100 Rocket 4.5 10:08:52 10° NNW 10:14:45 40° W 10:20:35 10° SSW
Cosmos 1544 3.0 10:11:52 10° N 10:15:29 81° W 10:19:02 10° S
Cosmos 2333 4.5 10:10:44 10° SSW 10:16:31 79° ESE 10:22:18 10° NNE
